User: anonymous   Login
Location: Parc des �les de St-Timoth�e
(45.2924°N, 74.0481°W)
Time: 22:05:34
(UTC-04:00)
Language:

Cosmos 2173 Rocket - Orbit

View from above orbital plane
View from above orbital plane
View from above satellite
View from above satellite

Ground track
Ground track

The orbit data is extracted from the following two-line orbital elements,

1 21797U 91081B   17289.30800862 +.00000096 +00000-0 +79931-4 0  9997
2 21797 082.9540 332.2481 0039379 108.6954 300.8705 13.77413403300800
Epoch (UTC): 16 October 2017 07:23:31
Eccentricity: 0.0039379
inclination: 82.9540°
perigee height: 944 km
apogee height: 1002 km
right ascension of ascending node: 332.2481°
argument of perigee: 108.6954°
revolutions per day: 13.77413403
mean anomaly at epoch: 300.8705°
orbit number at epoch: 30080

The dashed part of the orbit path shows where the satellite is in the earth's shadow,  

DLR